カタログに戻る

CZ-4B DEB

運用中SSO
NORAD 38313·DEBRIS·🇨🇳 China

打ち上げ Aug 15, 2011 から Taiyuan Satellite Launch Center

Loading…

次のパス (今後24時間)

TLE

最新Source: Space-Track

元期: Sep 14, 2026, 10:22 UTC

1 38313U 11043C   26257.43242225  .00000124  00000-0  21456-3 0  9991
2 38313  99.3761 103.6537 0219641  51.6119  64.6690 13.52089047662482

AllMySatでCZ-4B DEBをリアルタイム追跡

Download on the App Store